Вернуться в каталог

COSMOS 2392 DEB

АктивенLEO
NORAD 43372·DEBRIS·🇷🇺 Russia

Запущен Jul 25, 2002 с Baikonur Cosmodrome

Loading…

Ближайшие Пролёты (ближайшие 24 часа)

TLE

СвежийSource: Space-Track

Эпоха: Sep 13, 2026, 11:37 UTC

1 43372U 02037BW  26256.48424313 -.00003838  00000-0 -28403-1 0  9993
2 43372  63.4363  50.5174 0271959 343.6545  15.5780 12.30060855425671

Отслеживайте COSMOS 2392 DEB в реальном времени с AllMySat

Download on the App Store